Time,TemperatureF,DewpointF,PressureIn,WindDirection,WindDirectionDegrees,WindSpeedMPH,WindSpeedGustMPH,Humidity,HourlyPrecipIn,Conditions,Clouds,dailyrainin,SoftwareType,DateUTC
2013-07-20 00:02:00,74.0,73.0,30.10,SE,126,0.0,3.0,97,0.00,,,0.36,,2013-07-20 04:02:00,
2013-07-20 00:12:00,74.0,73.0,30.10,SE,126,0.0,3.0,97,0.00,,,0.36,,2013-07-20 04:12:00,
2013-07-20 00:22:00,74.0,73.0,30.10,East,90,0.0,2.0,96,0.00,,,0.36,,2013-07-20 04:22:00,
2013-07-20 00:52:00,74.0,72.0,30.09,ENE,69,1.0,5.0,95,0.00,,,0.36,,2013-07-20 04:52:00,
2013-07-20 01:22:00,74.0,72.0,30.08,ESE,105,1.0,6.0,95,0.00,,,0.36,,2013-07-20 05:22:00,
2013-07-20 01:32:00,74.0,72.0,30.08,East,88,1.0,3.0,95,0.00,,,0.36,,2013-07-20 05:32:00,
2013-07-20 01:52:00,74.0,72.0,30.07,ESE,123,0.0,4.0,95,0.00,,,0.36,,2013-07-20 05:52:00,
2013-07-20 02:11:00,74.0,73.0,30.07,ESE,119,1.0,4.0,96,0.00,,,0.36,,2013-07-20 06:11:00,
2013-07-20 02:22:00,74.0,72.0,30.07,ESE,104,1.0,5.0,95,0.00,,,0.36,,2013-07-20 06:22:00,
2013-07-20 02:32:00,74.0,72.0,30.06,ESE,117,0.0,3.0,95,0.00,,,0.36,,2013-07-20 06:32:00,
2013-07-20 02:43:00,74.0,73.0,30.05,ESE,121,0.0,3.0,96,0.00,,,0.36,,2013-07-20 06:43:00,
2013-07-20 02:52:00,74.0,73.0,30.05,ESE,121,0.0,3.0,96,0.00,,,0.36,,2013-07-20 06:52:00,
2013-07-20 03:01:00,74.0,73.0,30.06,East,101,0.0,3.0,96,0.00,,,0.36,,2013-07-20 07:01:00,
2013-07-20 03:12:00,74.0,73.0,30.05,ESE,120,0.0,3.0,96,0.00,,,0.36,,2013-07-20 07:12:00,
2013-07-20 03:22:00,74.0,73.0,30.05,ESE,120,0.0,3.0,96,0.00,,,0.36,,2013-07-20 07:22:00,
2013-07-20 03:33:00,74.0,73.0,30.04,East,94,0.0,3.0,96,0.00,,,0.36,,2013-07-20 07:33:00,
2013-07-20 03:44:00,74.0,73.0,30.04,ESE,123,0.0,3.0,97,0.00,,,0.36,,2013-07-20 07:44:00,
2013-07-20 03:53:00,74.0,73.0,30.04,ESE,123,0.0,3.0,97,0.00,,,0.36,,2013-07-20 07:53:00,
2013-07-20 04:02:00,74.0,73.0,30.04,ESE,102,0.0,2.0,97,0.00,,,0.36,,2013-07-20 08:02:00,
2013-07-20 04:11:00,74.0,73.0,30.04,ESE,111,0.0,3.0,97,0.00,,,0.36,,2013-07-20 08:11:00,
2013-07-20 04:22:00,74.0,73.0,30.04,ESE,111,0.0,3.0,97,0.00,,,0.36,,2013-07-20 08:22:00,
2013-07-20 04:32:00,74.0,73.0,30.04,East,92,1.0,3.0,97,0.00,,,0.36,,2013-07-20 08:32:00,
2013-07-20 04:44:00,74.0,73.0,30.04,SE,128,1.0,3.0,96,0.00,,,0.36,,2013-07-20 08:44:00,
2013-07-20 04:52:00,74.0,73.0,30.04,SE,128,1.0,3.0,96,0.00,,,0.36,,2013-07-20 08:52:00,
2013-07-20 05:02:00,74.0,73.0,30.03,ESE,107,0.0,2.0,96,0.00,,,0.36,,2013-07-20 09:02:00,
2013-07-20 05:22:00,74.0,73.0,30.03,ESE,103,0.0,3.0,96,0.00,,,0.36,,2013-07-20 09:22:00,
2013-07-20 05:33:00,74.0,73.0,30.03,East,87,0.0,3.0,96,0.00,,,0.36,,2013-07-20 09:33:00,
2013-07-20 05:43:00,74.0,73.0,30.03,East,98,0.0,3.0,96,0.00,,,0.36,,2013-07-20 09:43:00,
2013-07-20 05:53:00,74.0,73.0,30.03,East,98,0.0,3.0,96,0.00,,,0.36,,2013-07-20 09:53:00,
2013-07-20 06:01:00,74.0,73.0,30.03,East,83,0.0,2.0,97,0.00,,,0.36,,2013-07-20 10:01:00,
2013-07-20 06:11:00,74.0,73.0,30.03,East,101,0.0,2.0,97,0.00,,,0.36,,2013-07-20 10:11:00,
2013-07-20 06:22:00,74.0,73.0,30.03,East,101,0.0,2.0,97,0.00,,,0.36,,2013-07-20 10:22:00,
2013-07-20 06:32:00,74.0,73.0,30.04,East,93,0.0,2.0,97,0.00,,,0.36,,2013-07-20 10:32:00,
2013-07-20 06:52:00,74.0,73.0,30.04,East,91,0.0,2.0,97,0.00,,,0.36,,2013-07-20 10:52:00,
2013-07-20 07:02:00,74.0,73.0,30.04,ESE,121,0.0,3.0,97,0.00,,,0.36,,2013-07-20 11:02:00,
2013-07-20 07:22:00,74.0,73.0,30.05,ESE,121,0.0,1.0,97,0.00,,,0.36,,2013-07-20 11:22:00,
2013-07-20 07:43:00,74.0,73.0,30.05,ESE,107,0.0,3.0,97,0.00,,,0.36,,2013-07-20 11:43:00,
2013-07-20 07:52:00,74.0,73.0,30.05,ESE,107,0.0,3.0,97,0.00,,,0.36,,2013-07-20 11:52:00,
2013-07-20 08:11:00,75.0,74.0,30.05,East,94,1.0,3.0,97,0.00,,,0.36,,2013-07-20 12:11:00,
2013-07-20 08:22:00,75.0,74.0,30.06,SE,128,0.0,2.0,97,0.00,,,0.36,,2013-07-20 12:22:00,
2013-07-20 08:52:00,76.0,75.0,30.07,ESE,120,1.0,5.0,96,0.00,,,0.36,,2013-07-20 12:52:00,
2013-07-20 09:11:00,76.0,75.0,30.08,ESE,117,2.0,5.0,96,0.00,,,0.36,,2013-07-20 13:11:00,
2013-07-20 09:22:00,76.0,75.0,30.09,ENE,65,2.0,5.0,96,0.00,,,0.36,,2013-07-20 13:22:00,
2013-07-20 09:32:00,77.0,75.0,30.09,ESE,117,0.0,5.0,95,0.00,,,0.36,,2013-07-20 13:32:00,
2013-07-20 09:43:00,77.0,75.0,30.09,SE,134,2.0,5.0,95,0.00,,,0.36,,2013-07-20 13:43:00,
2013-07-20 09:53:00,77.0,75.0,30.09,SE,134,2.0,5.0,95,0.00,,,0.36,,2013-07-20 13:53:00,
2013-07-20 10:22:00,78.0,76.0,30.09,ESE,112,1.0,4.0,94,0.00,,,0.36,,2013-07-20 14:22:00,
2013-07-20 10:32:00,78.0,76.0,30.09,SE,146,2.0,5.0,93,0.00,,,0.36,,2013-07-20 14:32:00,
2013-07-20 10:53:00,79.0,77.0,30.09,ESE,111,0.0,5.0,93,0.00,,,0.36,,2013-07-20 14:53:00,
2013-07-20 11:01:00,79.0,76.0,30.09,ESE,113,3.0,5.0,92,0.00,,,0.36,,2013-07-20 15:01:00,
2013-07-20 11:11:00,79.0,76.0,30.09,East,83,1.0,7.0,92,0.00,,,0.36,,2013-07-20 15:11:00,
2013-07-20 11:22:00,79.0,76.0,30.09,East,83,1.0,7.0,92,0.00,,,0.36,,2013-07-20 15:22:00,
2013-07-20 11:33:00,79.0,77.0,30.09,ESE,105,1.0,5.0,93,0.00,,,0.36,,2013-07-20 15:33:00,
2013-07-20 11:53:00,80.0,77.0,30.09,ESE,117,0.0,5.0,92,0.00,,,0.36,,2013-07-20 15:53:00,
2013-07-20 12:01:00,80.0,77.0,30.09,East,96,2.0,7.0,92,0.00,,,0.36,,2013-07-20 16:01:00,
2013-07-20 12:11:00,80.0,78.0,30.10,ENE,76,0.0,4.0,93,0.00,,,0.36,,2013-07-20 16:11:00,
2013-07-20 12:22:00,80.0,78.0,30.10,ENE,76,0.0,4.0,93,0.00,,,0.36,,2013-07-20 16:22:00,
2013-07-20 12:32:00,80.0,78.0,30.10,East,83,1.0,3.0,93,0.00,,,0.36,,2013-07-20 16:32:00,
2013-07-20 12:43:00,81.0,78.0,30.10,ESE,107,0.0,3.0,90,0.00,,,0.36,,2013-07-20 16:43:00,
2013-07-20 12:52:00,81.0,78.0,30.10,ESE,107,0.0,3.0,90,0.00,,,0.36,,2013-07-20 16:52:00,
2013-07-20 13:02:00,82.0,78.0,30.09,SE,138,1.0,5.0,88,0.00,,,0.36,,2013-07-20 17:02:00,
2013-07-20 13:11:00,83.0,78.0,30.09,ESE,113,2.0,7.0,86,0.00,,,0.36,,2013-07-20 17:11:00,
2013-07-20 13:22:00,83.0,78.0,30.09,ESE,113,2.0,7.0,86,0.00,,,0.36,,2013-07-20 17:22:00,
2013-07-20 13:32:00,84.0,79.0,30.09,West,259,0.0,4.0,84,0.00,,,0.36,,2013-07-20 17:32:00,
2013-07-20 13:43:00,85.0,78.0,30.08,SE,140,2.0,7.0,80,0.00,,,0.36,,2013-07-20 17:43:00,
2013-07-20 13:53:00,85.0,78.0,30.08,SE,140,2.0,7.0,80,0.00,,,0.36,,2013-07-20 17:53:00,
2013-07-20 14:01:00,86.0,79.0,30.07,SSW,198,1.0,5.0,80,0.00,,,0.36,,2013-07-20 18:01:00,
2013-07-20 14:12:00,86.0,79.0,30.06,SE,129,0.0,6.0,79,0.00,,,0.36,,2013-07-20 18:12:00,
2013-07-20 14:24:00,86.0,79.0,30.06,SE,129,0.0,6.0,79,0.00,,,0.36,,2013-07-20 18:24:00,
2013-07-20 14:36:00,86.0,78.0,30.05,SSE,161,2.0,5.0,77,0.00,,,0.36,,2013-07-20 18:36:00,
2013-07-20 14:46:00,87.0,79.0,30.04,East,81,1.0,7.0,77,0.00,,,0.36,,2013-07-20 18:46:00,
2013-07-20 14:56:00,87.0,79.0,30.04,East,81,1.0,7.0,77,0.00,,,0.36,,2013-07-20 18:56:00,
2013-07-20 15:06:00,89.0,79.0,30.03,WSW,252,1.0,11.0,72,0.00,,,0.36,,2013-07-20 19:06:00,
2013-07-20 15:15:00,88.0,78.0,30.02,ESE,122,3.0,7.0,73,0.00,,,0.36,,2013-07-20 19:15:00,
2013-07-20 15:26:00,88.0,78.0,30.02,ESE,122,3.0,7.0,73,0.00,,,0.36,,2013-07-20 19:26:00,
2013-07-20 15:35:00,87.0,78.0,30.02,ESE,105,2.0,7.0,76,0.00,,,0.36,,2013-07-20 19:35:00,
2013-07-20 15:44:00,87.0,76.0,30.02,SSE,153,2.0,7.0,70,0.00,,,0.36,,2013-07-20 19:44:00,
2013-07-20 15:54:00,87.0,76.0,30.02,SSE,153,2.0,7.0,70,0.00,,,0.36,,2013-07-20 19:54:00,
2013-07-20 16:06:00,87.0,77.0,30.01,ESE,123,1.0,6.0,72,0.00,,,0.36,,2013-07-20 20:06:00,
2013-07-20 16:15:00,88.0,76.0,30.01,South,188,1.0,7.0,68,0.00,,,0.36,,2013-07-20 20:15:00,
2013-07-20 16:24:00,88.0,76.0,30.01,South,188,1.0,7.0,68,0.00,,,0.36,,2013-07-20 20:24:00,
2013-07-20 16:34:00,89.0,77.0,30.01,WSW,258,1.0,6.0,68,0.00,,,0.36,,2013-07-20 20:34:00,
2013-07-20 16:45:00,89.0,77.0,30.01,WSW,258,1.0,6.0,68,0.00,,,0.36,,2013-07-20 20:45:00,
2013-07-20 16:56:00,89.0,77.0,30.01,WSW,252,3.0,7.0,68,0.00,,,0.36,,2013-07-20 20:56:00,
2013-07-20 17:28:00,89.0,76.0,30.01,SW,215,2.0,10.0,66,0.00,,,0.36,,2013-07-20 21:28:00,
2013-07-20 17:35:00,89.0,78.0,30.01,SW,232,6.0,11.0,71,0.00,,,0.36,,2013-07-20 21:35:00,
2013-07-20 17:45:00,89.0,77.0,30.01,West,265,5.0,12.0,69,0.00,,,0.36,,2013-07-20 21:45:00,
2013-07-20 18:06:00,90.0,78.0,30.01,WSW,237,4.0,9.0,68,0.00,,,0.36,,2013-07-20 22:06:00,
2013-07-20 18:17:00,89.0,77.0,30.02,SW,214,2.0,8.0,69,0.00,,,0.05,,2013-07-20 22:17:00,
2013-07-20 18:26:00,89.0,77.0,30.02,SW,214,2.0,8.0,69,0.00,,,0.05,,2013-07-20 22:26:00,
2013-07-20 18:34:00,88.0,76.0,30.02,ESE,119,1.0,6.0,67,0.00,,,0.05,,2013-07-20 22:34:00,
2013-07-20 18:47:00,81.0,72.0,30.03,ENE,78,4.0,16.0,75,0.00,,,0.05,,2013-07-20 22:47:00,
2013-07-20 18:57:00,81.0,72.0,30.03,ENE,78,4.0,16.0,75,0.00,,,0.05,,2013-07-20 22:57:00,
2013-07-20 19:04:00,80.0,73.0,30.03,East,100,5.0,11.0,79,0.00,,,0.05,,2013-07-20 23:04:00,
2013-07-20 19:17:00,80.0,73.0,30.03,East,96,4.0,8.0,79,0.00,,,0.00,,2013-07-20 23:17:00,
2013-07-20 19:28:00,80.0,73.0,30.03,East,96,4.0,8.0,79,0.00,,,0.00,,2013-07-20 23:28:00,
2013-07-20 19:44:00,79.0,73.0,30.02,East,91,2.0,7.0,82,0.00,,,0.00,,2013-07-20 23:44:00,
2013-07-20 19:57:00,79.0,73.0,30.02,East,91,2.0,7.0,82,0.00,,,0.00,,2013-07-20 23:57:00,
2013-07-20 20:06:00,80.0,74.0,30.01,East,84,0.0,7.0,82,0.00,,,0.00,,2013-07-21 00:06:00,
2013-07-20 20:24:00,79.0,73.0,30.01,East,80,0.0,4.0,83,0.00,,,0.00,,2013-07-21 00:24:00,
2013-07-20 20:44:00,79.0,74.0,30.02,East,84,2.0,5.0,84,0.00,,,0.00,,2013-07-21 00:44:00,
2013-07-20 20:56:00,78.0,73.0,30.02,ESE,107,1.0,3.0,85,0.00,,,0.00,,2013-07-21 00:56:00,
2013-07-20 21:06:00,78.0,73.0,30.02,East,97,0.0,3.0,84,0.00,,,0.00,,2013-07-21 01:06:00,
2013-07-20 21:12:00,78.0,73.0,30.02,East,97,0.0,3.0,84,0.00,,,0.00,,2013-07-21 01:12:00,
2013-07-20 21:28:00,78.0,73.0,30.03,East,92,0.0,4.0,84,0.00,,,0.00,,2013-07-21 01:28:00,
2013-07-20 21:36:00,78.0,74.0,30.03,SE,135,2.0,4.0,87,0.00,,,0.00,,2013-07-21 01:36:00,
2013-07-20 21:46:00,-999.0,-99.9,30.03,SE,135,2.0,4.0,-999,-99.99,,,-99.99,,2013-07-21 01:46:00,
2013-07-20 21:59:00,78.0,74.0,30.03,ESE,102,0.0,3.0,87,0.00,,,0.00,,2013-07-21 01:59:00,
2013-07-20 22:06:00,77.0,73.0,30.03,East,81,0.0,2.0,88,0.00,,,0.00,,2013-07-21 02:06:00,
2013-07-20 22:18:00,77.0,73.0,30.03,East,81,0.0,2.0,88,0.00,,,0.00,,2013-07-21 02:18:00,
2013-07-20 22:27:00,77.0,74.0,30.04,ENE,75,0.0,2.0,89,0.00,,,0.00,,2013-07-21 02:27:00,
2013-07-20 22:36:00,77.0,74.0,30.04,SE,125,0.0,2.0,89,0.00,,,0.00,,2013-07-21 02:36:00,
2013-07-20 22:44:00,77.0,74.0,30.04,SE,125,0.0,2.0,89,0.00,,,0.00,,2013-07-21 02:44:00,
2013-07-20 22:58:00,77.0,74.0,30.06,SE,134,0.0,2.0,89,0.00,,,0.00,,2013-07-21 02:58:00,
2013-07-20 23:05:00,77.0,74.0,30.06,ESE,102,0.0,1.0,89,0.00,,,0.00,,2013-07-21 03:05:00,
2013-07-20 23:14:00,77.0,74.0,30.06,ESE,102,0.0,1.0,89,0.00,,,0.00,,2013-07-21 03:14:00,
2013-07-20 23:26:00,77.0,74.0,30.06,ESE,102,0.0,1.0,89,0.00,,,0.00,,2013-07-21 03:26:00,
2013-07-20 23:36:00,77.0,74.0,30.06,ESE,105,0.0,3.0,89,0.00,,,0.00,,2013-07-21 03:36:00,
2013-07-20 23:45:00,77.0,74.0,30.06,ESE,105,0.0,3.0,89,0.00,,,0.00,,2013-07-21 03:45:00,